Weather in Sljudyanka

Russia / Irkutsk Oblast     51°39′22″N   103°43′07″E
temp.,
°C
wind,
m/s
gust,
m/s
humid.,
%
clouds,
%
prec.,
mm/h
press.,
hPa
HPBL,
m
25 may, wed
wed2523:00+8wnw116210 0.0 102411
02:00+7wsw116910 0.0 102411
05:00+7sw1172100 0.0 102313
08:00+11e11575 0.0 1023193
11:00+13ese225129 0.0 1021406
14:00+13se334929 0.0 1019379
17:00+13ese244729 0.0 1016355
20:00+10e115879 0.0 101540
26 may, thu
thu2623:00+8e0165100 0.0 101312
02:00+8sw1166100 0.0 101115
05:00+9s116624 0.0 100913
08:00+14nnw014914 0.0 1008172
11:00+20nne243691 0.0 10061228
14:00+22n563198 0.0 10041772
17:00+22n6734100 0.0 10041972
20:00+16nw4858100 0.2 1007711
27 may, fri
fri2723:00+14wsw354991 0.0 1008210
02:00+11wnw375893 0.0 1011561
05:00+10nw376493 0.0 1011759
08:00+10nnw366150 0.0 10121004
11:00+13nw354355 0.0 10101448
14:00+14nw353898 0.0 10081606
17:00+15nnw3434100 0.0 10061654
20:00+13n3640100 0.0 1006401
28 may, sat
sat2823:00+10wsw3347100 0.0 100739
02:00+8wnw3460100 0.0 100893
05:00+6nw2269100 0.0 100928
08:00+9nnw254599 0.1 1011947
11:00+10nnw61040100 0.0 10121707
14:00+12nnw71031100 0.0 10112321
17:00+12nnw6112895 0.0 10112188
20:00+10nnw373614 0.0 10121385
29 may, sun
sun2923:00+6w335294 0.0 101535
02:00+4w33578 0.0 101540
05:00+3w33615 0.0 101443
08:00+9wnw224168 0.0 1012295
11:00+14nnw1333100 0.0 10101353
14:00+15ne2630100 0.0 10081730
17:00+16nne36318 0.0 10071428
20:00+13ne124196 0.0 100762